{"data":{"norad_id":62466,"epoch":"2026-05-24T23:30:27.054720Z","epoch_age_seconds":67082,"freshness":"FRESH","line1":"1 62466U 24254E   26144.97947980  .00148595  00000+0  11390-2 0  9998","line2":"2 62466  42.9986 122.7726 0001739 217.5792 142.4954 15.70879731 81246","mean_motion":15.70879731,"eccentricity":0.0001739,"inclination_deg":42.9986,"raan_deg":122.7726,"arg_perigee_deg":217.5792,"mean_anomaly_deg":142.4954,"bstar":0.001139,"rev_number":8124,"period_min":91.668379926407,"perigee_km":355.21037256017,"apogee_km":357.55263809632,"semimajor_km":6734.5185053282,"source":"CELESTRAK","updated_at":"2026-05-25T13:38:19.690646Z"}}